This is the latest recevied weather packets stored in our database for station/object EA3KZ-1. If no packets are shown the sender has not sent any weather packets the latest 10 day(s).
| Time | Temp. | Humidity | Pressure | Rain* | Wind** | Luminosity | Snow |
|---|---|---|---|---|---|---|---|
| 1777558829 | 23.33° C | 47% | 1012.2 hPa | 0 mm | - | - | - |
| 1777558227 | 23.89° C | 46% | 1012.4 hPa | 0 mm | - | - | - |
| 1777557624 | 23.33° C | 48% | 1012.3 hPa | 0 mm | - | - | - |
| 1777557021 | 23.33° C | 50% | 1012.2 hPa | 0 mm | - | - | - |
| 1777556419 | 22.22° C | 55% | 1012.3 hPa | 0 mm | - | - | - |
| 1777555816 | 22.22° C | 58% | 1012.4 hPa | 0 mm | - | - | - |
| 1777555274 | 22.22° C | 57% | 1012.4 hPa | 0 mm | - | - | - |
| 1777554671 | 22.78° C | 56% | 1012.4 hPa | 0 mm | - | - | - |
| 1777554068 | 22.22° C | 59% | 1012.3 hPa | 0 mm | - | - | - |
| 1777553466 | 22.78° C | 59% | 1012.4 hPa | 0 mm | - | - | - |
| 1777552863 | 22.78° C | 58% | 1012.5 hPa | 0 mm | - | - | - |
| 1777552260 | 21.67° C | 60% | 1012.6 hPa | 0 mm | - | - | - |
| 1777551658 | 21.11° C | 62% | 1012.5 hPa | 0 mm | - | - | - |
| 1777551055 | 21.67° C | 62% | 1012.6 hPa | 0 mm | - | - | - |
| 1777550453 | 21.67° C | 59% | 1012.6 hPa | 0 mm | - | - | - |
| 1777549850 | 21.67° C | 58% | 1012.9 hPa | 0 mm | - | - | - |
| 1777549247 | 21.11° C | 61% | 1012.8 hPa | 0 mm | - | - | - |
| 1777548645 | 21.11° C | 59% | 1012.7 hPa | 0 mm | - | - | - |
| 1777548042 | 21.11° C | 59% | 1012.9 hPa | 0 mm | - | - | - |
| 1777547440 | 22.22° C | 57% | 1012.8 hPa | 0 mm | - | - | - |
| 1777546837 | 22.22° C | 56% | 1013 hPa | 0 mm | - | - | - |
| 1777546234 | 21.11° C | 56% | 1012.9 hPa | 0 mm | - | - | - |
| 1777545632 | 20° C | 54% | 1012.9 hPa | 0 mm | - | - | - |
| 1777545029 | 21.11° C | 51% | 1012.9 hPa | 0 mm | - | - | - |
| 1777544427 | 21.11° C | 52% | 1012.8 hPa | 0 mm | - | - | - |
* Rain latest hour (hover to see other rain measurements)
** Current wind speed in m/s (hover to see current wind gust speed)